Time,TemperatureF,DewpointF,PressureIn,WindDirection,WindDirectionDegrees,WindSpeedMPH,WindSpeedGustMPH,Humidity,HourlyPrecipIn,Conditions,Clouds,dailyrainin,SoftwareType,DateUTC
2013-01-12 00:04:00,15.2,10.0,30.36,SSW,192,10.0,10.0,80,0.00,,,0.00,weatherlink.com 1.10,2013-01-12 08:04:00,
2013-01-12 00:19:00,14.6,10.0,30.36,South,182,1.0,10.0,80,0.00,,,0.00,weatherlink.com 1.10,2013-01-12 08:19:00,
2013-01-12 00:35:00,14.1,9.0,30.37,South,180,4.0,12.0,80,0.00,,,0.00,weatherlink.com 1.10,2013-01-12 08:35:00,
2013-01-12 00:50:00,13.8,9.0,30.37,SSW,196,4.0,10.0,80,0.00,,,0.00,weatherlink.com 1.10,2013-01-12 08:50:00,
2013-01-12 01:05:00,13.4,8.0,30.37,South,184,5.0,13.0,80,0.00,,,0.00,weatherlink.com 1.10,2013-01-12 09:05:00,
2013-01-12 01:20:00,13.0,8.0,30.37,South,182,4.0,12.0,80,0.00,,,0.00,weatherlink.com 1.10,2013-01-12 09:20:00,
2013-01-12 01:35:00,12.9,8.0,30.38,South,174,5.0,12.0,81,0.00,,,0.00,weatherlink.com 1.10,2013-01-12 09:35:00,
2013-01-12 01:50:00,12.5,7.0,30.38,South,171,5.0,11.0,80,0.00,,,0.00,weatherlink.com 1.10,2013-01-12 09:50:00,
2013-01-12 02:05:00,11.9,7.0,30.39,SSW,192,3.0,8.0,80,0.00,,,0.00,weatherlink.com 1.10,2013-01-12 10:05:00,
2013-01-12 02:20:00,11.8,7.0,30.39,South,185,2.0,11.0,80,0.00,,,0.00,weatherlink.com 1.10,2013-01-12 10:20:00,
2013-01-12 02:35:00,11.4,6.0,30.38,South,182,4.0,9.0,80,0.00,,,0.00,weatherlink.com 1.10,2013-01-12 10:35:00,
2013-01-12 02:50:00,11.2,6.0,30.38,South,178,7.0,10.0,81,0.00,,,0.00,weatherlink.com 1.10,2013-01-12 10:50:00,
2013-01-12 03:05:00,11.4,7.0,30.38,SSW,192,5.0,10.0,81,0.00,,,0.00,weatherlink.com 1.10,2013-01-12 11:05:00,
2013-01-12 03:20:00,11.6,7.0,30.38,SSE,166,5.0,9.0,81,0.00,,,0.00,weatherlink.com 1.10,2013-01-12 11:20:00,
2013-01-12 03:35:00,11.7,7.0,30.38,South,181,5.0,10.0,81,0.00,,,0.00,weatherlink.com 1.10,2013-01-12 11:35:00,
2013-01-12 03:50:00,12.0,7.0,30.37,South,184,3.0,11.0,81,0.00,,,0.00,weatherlink.com 1.10,2013-01-12 11:50:00,
2013-01-12 04:05:00,12.2,7.0,30.37,South,190,7.0,11.0,81,0.00,,,0.00,weatherlink.com 1.10,2013-01-12 12:05:00,
2013-01-12 04:20:00,12.1,7.0,30.37,South,169,5.0,10.0,81,0.00,,,0.00,weatherlink.com 1.10,2013-01-12 12:20:00,
2013-01-12 04:35:00,11.6,7.0,30.37,South,182,5.0,11.0,81,0.00,,,0.00,weatherlink.com 1.10,2013-01-12 12:35:00,
2013-01-12 04:50:00,11.2,6.0,30.37,South,171,4.0,11.0,81,0.00,,,0.00,weatherlink.com 1.10,2013-01-12 12:50:00,
2013-01-12 05:05:00,10.8,6.0,30.37,South,179,6.0,14.0,81,0.00,,,0.00,weatherlink.com 1.10,2013-01-12 13:05:00,
2013-01-12 05:20:00,10.6,6.0,30.37,South,180,9.0,15.0,81,0.00,,,0.00,weatherlink.com 1.10,2013-01-12 13:20:00,
2013-01-12 05:35:00,10.4,6.0,30.37,SE,140,10.0,13.0,81,0.00,,,0.00,weatherlink.com 1.10,2013-01-12 13:35:00,
2013-01-12 05:50:00,10.1,5.0,30.38,SSE,163,3.0,9.0,81,0.00,,,0.00,weatherlink.com 1.10,2013-01-12 13:50:00,
2013-01-12 06:05:00,10.0,5.0,30.38,SSE,147,9.0,11.0,81,0.00,,,0.00,weatherlink.com 1.10,2013-01-12 14:05:00,
2013-01-12 06:20:00,9.9,5.0,30.39,SE,140,6.0,11.0,81,0.00,,,0.00,weatherlink.com 1.10,2013-01-12 14:20:00,
2013-01-12 06:35:00,9.8,5.0,30.39,SE,140,4.0,10.0,81,0.00,,,0.00,weatherlink.com 1.10,2013-01-12 14:35:00,
2013-01-12 06:50:00,9.7,5.0,30.39,SSE,164,3.0,9.0,81,0.00,,,0.00,weatherlink.com 1.10,2013-01-12 14:50:00,
2013-01-12 07:05:00,9.7,5.0,30.39,SSE,153,6.0,11.0,82,0.00,,,0.00,weatherlink.com 1.10,2013-01-12 15:05:00,
2013-01-12 07:21:00,9.8,5.0,30.39,South,175,4.0,16.0,82,0.00,,,0.00,weatherlink.com 1.10,2013-01-12 15:21:00,
2013-01-12 07:36:00,9.6,5.0,30.39,South,169,7.0,14.0,81,0.00,,,0.00,weatherlink.com 1.10,2013-01-12 15:36:00,
2013-01-12 07:51:00,9.6,5.0,30.39,South,171,14.0,16.0,81,0.00,,,0.00,weatherlink.com 1.10,2013-01-12 15:51:00,
2013-01-12 08:06:00,9.5,5.0,30.39,South,174,7.0,16.0,81,0.00,,,0.00,weatherlink.com 1.10,2013-01-12 16:06:00,
2013-01-12 08:21:00,9.6,5.0,30.39,SSW,194,4.0,13.0,81,0.00,,,0.00,weatherlink.com 1.10,2013-01-12 16:21:00,
2013-01-12 08:36:00,10.3,6.0,30.39,SSE,158,3.0,10.0,81,0.00,,,0.00,weatherlink.com 1.10,2013-01-12 16:36:00,
2013-01-12 08:51:00,11.5,6.0,30.39,East,96,3.0,11.0,79,0.00,,,0.00,weatherlink.com 1.10,2013-01-12 16:51:00,
2013-01-12 09:06:00,12.3,7.0,30.40,SE,140,6.0,8.0,78,0.00,,,0.00,weatherlink.com 1.10,2013-01-12 17:06:00,
2013-01-12 09:21:00,13.0,7.0,30.40,SSE,150,6.0,9.0,77,0.00,,,0.00,weatherlink.com 1.10,2013-01-12 17:21:00,
2013-01-12 09:36:00,14.7,8.0,30.40,SE,130,8.0,9.0,76,0.00,,,0.00,weatherlink.com 1.10,2013-01-12 17:36:00,
2013-01-12 09:51:00,15.8,9.0,30.40,SSE,150,4.0,12.0,74,0.00,,,0.00,weatherlink.com 1.10,2013-01-12 17:51:00,
2013-01-12 10:06:00,16.1,9.0,30.40,SSE,156,7.0,12.0,74,0.00,,,0.00,weatherlink.com 1.10,2013-01-12 18:06:00,
2013-01-12 10:21:00,17.1,10.0,30.40,South,182,4.0,10.0,73,0.00,,,0.00,weatherlink.com 1.10,2013-01-12 18:21:00,
2013-01-12 10:37:00,17.9,10.0,30.40,SE,142,9.0,14.0,72,0.00,,,0.00,weatherlink.com 1.10,2013-01-12 18:37:00,
2013-01-12 10:52:00,18.2,10.0,30.40,South,182,4.0,12.0,71,0.00,,,0.00,weatherlink.com 1.10,2013-01-12 18:52:00,
2013-01-12 11:07:00,18.4,10.0,30.39,SSW,192,7.0,11.0,71,0.00,,,0.00,weatherlink.com 1.10,2013-01-12 19:07:00,
2013-01-12 11:22:00,18.8,11.0,30.39,SSE,148,5.0,9.0,70,0.00,,,0.00,weatherlink.com 1.10,2013-01-12 19:22:00,
2013-01-12 11:37:00,19.7,11.0,30.38,South,183,5.0,10.0,68,0.00,,,0.00,weatherlink.com 1.10,2013-01-12 19:37:00,
2013-01-12 11:52:00,20.7,11.0,30.38,South,180,1.0,9.0,66,0.00,,,0.00,weatherlink.com 1.10,2013-01-12 19:52:00,
2013-01-12 12:07:00,21.5,11.0,30.38,South,171,4.0,7.0,65,0.00,,,0.00,weatherlink.com 1.10,2013-01-12 20:07:00,
2013-01-12 12:22:00,22.5,12.0,30.38,SSE,150,3.0,8.0,63,0.00,,,0.00,weatherlink.com 1.10,2013-01-12 20:22:00,
2013-01-12 12:37:00,23.5,12.0,30.38,SSE,166,3.0,7.0,61,0.00,,,0.00,weatherlink.com 1.10,2013-01-12 20:37:00,
2013-01-12 12:52:00,24.1,11.0,30.38,ESE,118,4.0,7.0,58,0.00,,,0.00,weatherlink.com 1.10,2013-01-12 20:52:00,
2013-01-12 13:07:00,25.4,11.0,30.38,ESE,107,3.0,5.0,55,0.00,,,0.00,weatherlink.com 1.10,2013-01-12 21:07:00,
2013-01-12 13:22:00,26.3,13.0,30.38,ESE,107,2.0,3.0,57,0.00,,,0.00,weatherlink.com 1.10,2013-01-12 21:22:00,
2013-01-12 13:37:00,26.1,12.0,30.38,ENE,61,2.0,4.0,56,0.00,,,0.00,weatherlink.com 1.10,2013-01-12 21:37:00,
2013-01-12 13:52:00,27.5,12.0,30.38,ENE,61,2.0,3.0,52,0.00,,,0.00,weatherlink.com 1.10,2013-01-12 21:52:00,
2013-01-12 14:08:00,27.2,11.0,30.39,NNE,24,5.0,6.0,50,0.00,,,0.00,weatherlink.com 1.10,2013-01-12 22:08:00,
2013-01-12 14:23:00,27.2,11.0,30.39,NNW,340,5.0,6.0,50,0.00,,,0.00,weatherlink.com 1.10,2013-01-12 22:23:00,
2013-01-12 14:38:00,27.0,11.0,30.40,NNE,21,3.0,6.0,51,0.00,,,0.00,weatherlink.com 1.10,2013-01-12 22:38:00,
2013-01-12 14:53:00,26.7,10.0,30.41,North,355,4.0,8.0,49,0.00,,,0.00,weatherlink.com 1.10,2013-01-12 22:53:00,
2013-01-12 15:08:00,26.7,10.0,30.41,North,5,3.0,6.0,49,0.00,,,0.00,weatherlink.com 1.10,2013-01-12 23:08:00,
2013-01-12 15:23:00,26.7,9.0,30.41,North,360,0.0,5.0,47,0.00,,,0.00,weatherlink.com 1.10,2013-01-12 23:23:00,
2013-01-12 15:38:00,26.1,6.0,30.41,North,360,2.0,5.0,43,0.00,,,0.00,weatherlink.com 1.10,2013-01-12 23:38:00,
2013-01-12 15:53:00,26.4,9.0,30.41,North,360,2.0,4.0,48,0.00,,,0.00,weatherlink.com 1.10,2013-01-12 23:53:00,
2013-01-12 16:08:00,25.7,7.0,30.41,North,360,3.0,5.0,46,0.00,,,0.00,weatherlink.com 1.10,2013-01-13 00:08:00,
2013-01-12 16:23:00,25.1,8.0,30.41,North,360,1.0,4.0,49,0.00,,,0.00,weatherlink.com 1.10,2013-01-13 00:23:00,
2013-01-12 16:38:00,24.5,9.0,30.42,North,360,3.0,4.0,51,0.00,,,0.00,weatherlink.com 1.10,2013-01-13 00:38:00,
2013-01-12 16:53:00,23.5,9.0,30.42,North,360,2.0,4.0,54,0.00,,,0.00,weatherlink.com 1.10,2013-01-13 00:53:00,
2013-01-12 17:08:00,22.6,9.0,30.43,North,360,1.0,4.0,57,0.00,,,0.00,weatherlink.com 1.10,2013-01-13 01:08:00,
2013-01-12 17:23:00,21.8,10.0,30.43,North,360,1.0,4.0,60,0.00,,,0.00,weatherlink.com 1.10,2013-01-13 01:23:00,
2013-01-12 17:39:00,21.0,10.0,30.44,North,360,1.0,4.0,63,0.00,,,0.00,weatherlink.com 1.10,2013-01-13 01:39:00,
2013-01-12 17:54:00,20.5,10.0,30.43,North,360,0.0,3.0,65,0.00,,,0.00,weatherlink.com 1.10,2013-01-13 01:54:00,
2013-01-12 18:09:00,19.1,10.0,30.43,North,360,1.0,1.0,68,0.00,,,0.00,weatherlink.com 1.10,2013-01-13 02:09:00,
2013-01-12 18:24:00,17.7,10.0,30.44,North,360,0.0,2.0,71,0.00,,,0.00,weatherlink.com 1.10,2013-01-13 02:24:00,
2013-01-12 18:39:00,16.6,10.0,30.43,North,360,1.0,2.0,74,0.00,,,0.00,weatherlink.com 1.10,2013-01-13 02:39:00,
2013-01-12 18:54:00,17.0,10.0,30.43,North,360,1.0,2.0,74,0.00,,,0.00,weatherlink.com 1.10,2013-01-13 02:54:00,
2013-01-12 19:09:00,15.4,9.0,30.44,North,360,1.0,1.0,77,0.00,,,0.00,weatherlink.com 1.10,2013-01-13 03:09:00,
2013-01-12 19:24:00,16.4,10.0,30.45,North,360,1.0,3.0,75,0.00,,,0.00,weatherlink.com 1.10,2013-01-13 03:24:00,
2013-01-12 19:39:00,16.1,9.0,30.45,North,360,1.0,3.0,74,0.00,,,0.00,weatherlink.com 1.10,2013-01-13 03:39:00,
2013-01-12 19:54:00,15.7,9.0,30.46,North,360,0.0,1.0,75,0.00,,,0.00,weatherlink.com 1.10,2013-01-13 03:54:00,
2013-01-12 20:09:00,14.4,8.0,30.47,North,360,0.0,1.0,77,0.00,,,0.00,weatherlink.com 1.10,2013-01-13 04:09:00,
2013-01-12 20:24:00,13.5,8.0,30.46,North,360,0.0,1.0,80,0.00,,,0.00,weatherlink.com 1.10,2013-01-13 04:24:00,
2013-01-12 20:39:00,12.8,8.0,30.46,North,360,0.0,1.0,80,0.00,,,0.00,weatherlink.com 1.10,2013-01-13 04:39:00,
2013-01-12 20:55:00,12.6,8.0,30.47,North,360,0.0,1.0,81,0.00,,,0.00,weatherlink.com 1.10,2013-01-13 04:55:00,
2013-01-12 21:10:00,12.2,7.0,30.48,North,360,0.0,2.0,81,0.00,,,0.00,weatherlink.com 1.10,2013-01-13 05:10:00,
2013-01-12 21:25:00,11.3,7.0,30.47,North,360,0.0,1.0,81,0.00,,,0.00,weatherlink.com 1.10,2013-01-13 05:25:00,
2013-01-12 21:40:00,11.3,7.0,30.48,North,360,0.0,2.0,82,0.00,,,0.00,weatherlink.com 1.10,2013-01-13 05:40:00,
2013-01-12 21:55:00,11.3,7.0,30.48,North,360,1.0,2.0,82,0.00,,,0.00,weatherlink.com 1.10,2013-01-13 05:55:00,
2013-01-12 22:10:00,10.8,6.0,30.48,North,360,1.0,1.0,82,0.00,,,0.00,weatherlink.com 1.10,2013-01-13 06:10:00,
2013-01-12 22:25:00,10.6,6.0,30.49,North,360,0.0,2.0,82,0.00,,,0.00,weatherlink.com 1.10,2013-01-13 06:25:00,
2013-01-12 22:40:00,10.7,6.0,30.49,North,360,1.0,3.0,82,0.00,,,0.00,weatherlink.com 1.10,2013-01-13 06:40:00,
2013-01-12 22:55:00,10.5,6.0,30.50,North,360,1.0,2.0,81,0.00,,,0.00,weatherlink.com 1.10,2013-01-13 06:55:00,
2013-01-12 23:10:00,10.2,6.0,30.50,North,360,2.0,3.0,82,0.00,,,0.00,weatherlink.com 1.10,2013-01-13 07:10:00,
2013-01-12 23:25:00,10.0,6.0,30.49,North,360,0.0,3.0,82,0.00,,,0.00,weatherlink.com 1.10,2013-01-13 07:25:00,
2013-01-12 23:40:00,10.1,6.0,30.49,North,360,1.0,3.0,83,0.00,,,0.00,weatherlink.com 1.10,2013-01-13 07:40:00,
2013-01-12 23:55:00,10.0,6.0,30.49,North,360,2.0,4.0,82,0.00,,,0.00,weatherlink.com 1.10,2013-01-13 07:55:00,